Grosse Ile, MI

12:42 PM EDT on March 23, 2017 (GMT -0400)
Grosse Ile Municipal

Weather History for KONZ - December, 2012

Change the Weather History Date:

Thursday, December 13, 2012

  Actual Average (KDTW) Record (KDTW)
Temperature  
Mean Temperature 36 °F -  
Max Temperature 42 °F 37 °F 62 °F (2015)
Min Temperature 30 °F 24 °F 1 °F (1960)
Degree Days  
Heating Degree Days 29    
Moisture  
Dew Point 29 °F    
Average Humidity 74    
Maximum Humidity 87    
Minimum Humidity 57    
Precipitation  
Precipitation 0.00 in - - ()
Sea Level Pressure  
Sea Level Pressure 30.30 in    
Wind  
Wind Speed 8 mph (SSW)    
Max Wind Speed 14 mph    
Max Gust Speed 18 mph    
Visibility 10 miles    
Events      
Averages and records for this station are not official NWS values.
T = Trace of Precipitation, MM = Missing Value Source: NWS Daily Summary

Daily Weather History Graph

Daily Weather History Graph

Search for Another Location

Airport or City:

Trip Planner

Search our weather history database for the weather conditions in past years. The results will help you decide how hot, cold, wet, or windy it might be!

Date:

Astronomy

Dec. 13, 2012 Rise Set
Actual Time 7:52 AM EST 5:01 PM EST
Civil Twilight 7:21 AM EST 5:33 PM EST
Nautical Twilight 6:45 AM EST 6:08 PM EST
Astronomical Twilight 6:11 AM EST 6:42 PM EST
Moon 7:59 AM EST (12/13) 5:43 PM EST (12/13)
Length of Visible Light 10h 11m
Length of Day
9h 08m
New Moon, 0% of the Moon is Illuminated
Dec 13
New Moon
Dec 20
First Quarter
Dec 28
Full
Jan 4
Last Quarter
Jan 11
New

Hourly Weather History & Observations

Time (EST) Temp. Windchill Dew Point Humidity Pressure Visibility Wind Dir Wind Speed Gust Speed Precip Events Conditions
12:14 AM 35.6 °F 29.2 °F 30.2 °F 81% 30.36 in 10.0 mi SSW 8.1 mph - N/A   Clear
12:34 AM 35.6 °F 29.9 °F 28.4 °F 75% 30.36 in 10.0 mi SSW 6.9 mph - N/A   Clear
12:54 AM 35.6 °F 29.9 °F 28.4 °F 75% 30.36 in 10.0 mi SSW 6.9 mph - N/A   Clear
1:14 AM 35.6 °F 29.2 °F 28.4 °F 75% 30.35 in 10.0 mi SSW 8.1 mph - N/A   Clear
1:34 AM 35.6 °F 29.9 °F 28.4 °F 75% 30.35 in 10.0 mi SSW 6.9 mph - N/A   Clear
1:54 AM 33.8 °F 27.7 °F 28.4 °F 81% 30.36 in 10.0 mi SSW 6.9 mph - N/A   Clear
2:14 AM 33.8 °F 27.0 °F 28.4 °F 81% 30.35 in 10.0 mi SSW 8.1 mph - N/A   Clear
2:35 AM 33.8 °F 26.4 °F 28.4 °F 81% 30.36 in 10.0 mi SSW 9.2 mph - N/A   Clear
2:54 AM 33.8 °F 29.6 °F 28.4 °F 81% 30.37 in 10.0 mi SSW 4.6 mph - N/A   Clear
3:14 AM 33.8 °F 29.6 °F 26.6 °F 75% 30.37 in 10.0 mi SW 4.6 mph - N/A   Clear
3:35 AM 33.8 °F 28.6 °F 26.6 °F 75% 30.37 in 10.0 mi SW 5.8 mph - N/A   Clear
3:54 AM 32.0 °F 27.5 °F 26.6 °F 80% 30.37 in 10.0 mi SSW 4.6 mph - N/A   Clear
4:14 AM 33.8 °F 27.7 °F 26.6 °F 75% 30.36 in 10.0 mi SSW 6.9 mph - N/A   Clear
4:34 AM 33.8 °F 27.7 °F 24.8 °F 70% 30.37 in 10.0 mi SW 6.9 mph - N/A   Clear
4:54 AM 33.8 °F 27.0 °F 24.8 °F 70% 30.36 in 10.0 mi SSW 8.1 mph - N/A   Clear
5:14 AM 32.0 °F 26.4 °F 24.8 °F 75% 30.36 in 10.0 mi SSW 5.8 mph - N/A   Clear
5:34 AM 30.2 °F 26.7 °F 24.8 °F 80% 30.36 in 10.0 mi SSW 3.5 mph - N/A   Clear
5:54 AM 32.0 °F - 26.6 °F 80% 30.37 in 10.0 mi Calm Calm - N/A   Clear
6:14 AM 32.0 °F 28.7 °F 26.6 °F 80% 30.37 in 10.0 mi SSW 3.5 mph - N/A   Clear
6:34 AM 32.0 °F - 26.6 °F 80% 30.37 in 10.0 mi Calm Calm - N/A   Clear
6:54 AM 30.2 °F - 26.6 °F 86% 30.37 in 10.0 mi Calm Calm - N/A   Clear
7:14 AM 30.2 °F 25.4 °F 26.6 °F 86% 30.37 in 10.0 mi SSW 4.6 mph - N/A   Clear
7:34 AM 30.2 °F 23.4 °F 26.6 °F 86% 30.37 in 10.0 mi SSW 6.9 mph - N/A   Clear
7:54 AM 32.0 °F 24.8 °F 28.4 °F 87% 30.37 in 10.0 mi SSW 8.1 mph - N/A   Clear
8:14 AM 32.0 °F 24.8 °F 28.4 °F 87% 30.37 in 10.0 mi SSW 8.1 mph - N/A   Clear
8:34 AM 33.8 °F 26.4 °F 28.4 °F 81% 30.36 in 10.0 mi SSW 9.2 mph - N/A   Clear
8:54 AM 35.6 °F 29.2 °F 28.4 °F 75% 30.37 in 10.0 mi SSW 8.1 mph - N/A   Clear
9:14 AM 35.6 °F 29.2 °F 28.4 °F 75% 30.37 in 10.0 mi SSW 8.1 mph - N/A   Clear
9:34 AM 35.6 °F 29.2 °F 28.4 °F 75% 30.37 in 10.0 mi SW 8.1 mph - N/A   Clear
9:55 AM 37.4 °F 32.8 °F 28.4 °F 70% 30.37 in 10.0 mi SSW 5.8 mph - N/A   Clear
10:14 AM 37.4 °F 32.8 °F 28.4 °F 70% 30.36 in 10.0 mi SSW 5.8 mph - N/A   Clear
10:34 AM 37.4 °F 32.8 °F 28.4 °F 70% 30.36 in 10.0 mi SW 5.8 mph - N/A   Clear
10:55 AM 39.2 °F 33.6 °F 26.6 °F 61% 30.36 in 10.0 mi SSW 8.1 mph - N/A   Clear
11:14 AM 39.2 °F 32.5 °F 26.6 °F 61% 30.35 in 10.0 mi SSW 10.4 mph - N/A   Clear
11:34 AM 39.2 °F 33.0 °F 28.4 °F 65% 30.34 in 10.0 mi South 9.2 mph - N/A   Clear
11:54 AM 37.4 °F 30.3 °F 28.4 °F 70% 30.33 in 10.0 mi South 10.4 mph - N/A   Clear
12:14 PM 39.2 °F 32.0 °F 28.4 °F 65% 30.32 in 10.0 mi South 11.5 mph - N/A   Clear
12:34 PM 39.2 °F 31.6 °F 28.4 °F 65% 30.31 in 10.0 mi South 12.7 mph - N/A   Clear
12:54 PM 41.0 °F 33.5 °F 28.4 °F 61% 30.31 in 10.0 mi South 13.8 mph - N/A   Clear
1:14 PM 41.0 °F 33.9 °F 28.4 °F 61% 30.30 in 10.0 mi South 12.7 mph - N/A   Clear
1:34 PM 41.0 °F 33.9 °F 30.2 °F 65% 30.29 in 10.0 mi South 12.7 mph - N/A   Clear
1:54 PM 41.0 °F 34.3 °F 30.2 °F 65% 30.29 in 10.0 mi South 11.5 mph - N/A   Clear
2:14 PM 42.8 °F 36.6 °F 30.2 °F 61% 30.28 in 10.0 mi South 11.5 mph - N/A   Clear
2:34 PM 42.8 °F 36.2 °F 28.4 °F 57% 30.27 in 10.0 mi South 12.7 mph - N/A   Clear
2:54 PM 42.8 °F 36.6 °F 30.2 °F 61% 30.25 in 10.0 mi South 11.5 mph - N/A   Clear
3:15 PM 41.0 °F 34.3 °F 32.0 °F 70% 30.25 in 10.0 mi South 11.5 mph - N/A   Clear
3:34 PM 41.0 °F 33.5 °F 30.2 °F 65% 30.25 in 10.0 mi South 13.8 mph - N/A   Clear
3:54 PM 41.0 °F 34.3 °F 32.0 °F 70% 30.25 in 10.0 mi South 11.5 mph - N/A   Clear
4:15 PM 39.2 °F 31.6 °F 32.0 °F 75% 30.24 in 10.0 mi South 12.7 mph - N/A   Clear
4:34 PM 39.2 °F 31.6 °F 32.0 °F 75% 30.23 in 10.0 mi South 12.7 mph - N/A   Clear
4:54 PM 39.2 °F 32.5 °F 33.8 °F 81% 30.22 in 10.0 mi South 10.4 mph - N/A   Clear
5:14 PM 39.2 °F 32.0 °F 32.0 °F 75% 30.21 in 10.0 mi South 11.5 mph - N/A   Clear
5:34 PM 39.2 °F 32.0 °F 30.2 °F 70% 30.22 in 10.0 mi South 11.5 mph - N/A   Clear
7:14 PM 37.4 °F 29.3 °F 33.8 °F 87% 30.21 in 10.0 mi South 12.7 mph - N/A   Clear
8:14 PM 39.2 °F 31.6 °F 33.8 °F 81% 30.21 in 10.0 mi South 12.7 mph - N/A   Clear
8:34 PM 37.4 °F 28.9 °F 32.0 °F 81% 30.20 in 10.0 mi South 13.8 mph - N/A   Clear
8:54 PM 37.4 °F 29.3 °F 33.8 °F 87% 30.20 in 10.0 mi South 12.7 mph - N/A   Clear
9:14 PM 37.4 °F 28.9 °F 32.0 °F 81% 30.19 in 10.0 mi South 13.8 mph - N/A   Clear
9:34 PM 37.4 °F 29.3 °F 30.2 °F 75% 30.19 in 10.0 mi SSW 12.7 mph 18.4 mph N/A   Clear
9:54 PM 37.4 °F 28.9 °F 30.2 °F 75% 30.19 in 10.0 mi SSW 13.8 mph - N/A   Clear
10:14 PM 37.4 °F 29.3 °F 30.2 °F 75% 30.18 in 10.0 mi SSW 12.7 mph - N/A   Clear
10:34 PM 37.4 °F 29.3 °F 30.2 °F 75% 30.18 in 10.0 mi SSW 12.7 mph - N/A   Clear
10:54 PM 37.4 °F 29.8 °F 30.2 °F 75% 30.18 in 10.0 mi SSW 11.5 mph - N/A   Clear
11:14 PM 37.4 °F 30.3 °F 28.4 °F 70% 30.17 in 10.0 mi SSW 10.4 mph 17.3 mph N/A   Clear
11:34 PM 37.4 °F 31.4 °F 28.4 °F 70% 30.18 in 10.0 mi SSW 8.1 mph - N/A   Clear
11:54 PM 35.6 °F 31.7 °F 28.4 °F 75% 30.19 in 10.0 mi SSW 4.6 mph - N/A   Clear